User: anonymous   Login
Location: Unspecified
(0.0000°N, 0.0000°E)
Time: 19:54:49
(UTC+00:00)
Language:

ATHENOXAT 1 - Orbit

View from above orbital plane
View from above orbital plane
View from above satellite
View from above satellite

Ground track
Ground track

The orbit data is extracted from the following two-line orbital elements,

1 41168U 15077C   17269.43333774  .00002682  00000-0  11351-3 0  9991
2 41168  14.9856 149.6288 0011944 339.1598 184.7755 15.11914434 98388
Epoch (UTC): 26 September 2017 10:24:00
Eccentricity: 0.0011944
inclination: 14.9856°
perigee height: 522 km
apogee height: 538 km
right ascension of ascending node: 149.6288°
argument of perigee: 339.1598°
revolutions per day: 15.11914434
mean anomaly at epoch: 184.7755°
orbit number at epoch: 9838

The dashed part of the orbit path shows where the satellite is in the earth's shadow,  

DLR